[[{"header":{"parameterUnit":"m.s-1","parameterCategory":1,"la1":30.2991,"la2":30.254,"lo1":-89.0895,"lo2":-89.0444,"dy":0.0017,"dx":0.0017,"nx":28,"ny":28,"refTime":"2024-06-01T03:00:00:Z","depth":0,"parameterNumber":2,"parameterNumberName":"U-component_of_WINDS"},"data":[0,0,0,0,0,0,0,0,0,0,0,0,0,0,0,0,0,0,0,0,0,0,0,0,0,0,0,0,0,0,0,0,0,0,0,0,0,0,0,0,0,0,0,0,0,0,0,0,0,0,0,0,0,0,0,0,0,0,1.5539,1.554,0,1.5677,1.5679,1.568,1.5687,1.5686,1.5684,1.5683,1.582,1.5825,1.583,0,0,0,0,0,0,0,0,0,0,0,0,0,1.5274,1.5279,1.5538,1.554,1.5542,1.5677,1.5679,1.5681,1.5688,1.5686,1.5684,1.5682,1.5818,1.5824,1.583,0,0,0,0,0,0,0,0,0,0,0,0,0,1.5398,1.528,1.5538,1.5562,1.5565,1.5677,1.5679,1.5681,1.5688,1.5686,1.5683,1.5681,1.5816,1.5824,1.5831,1.5927,0,0,1.5855,1.5858,0,0,0,0,0,0,0,0,1.5391,1.5408,1.5557,1.556,1.5565,1.5663,1.5636,1.5763,1.5689,1.5641,1.5683,1.568,1.5769,1.578,1.5812,1.5933,1.5939,1.5855,1.586,1.5863,1.5866,0,0,0,0,0,0,0,1.5382,1.5402,1.5593,1.5559,1.5564,1.5564,1.5579,1.566,1.5717,1.5645,1.5646,1.5663,1.5771,1.5804,1.5815,1.5941,1.5855,1.5862,1.5867,1.587,1.6145,1.6147,0,0,0,0,0,0,1.537,1.5395,1.5589,1.5597,1.547,1.557,1.5587,1.5633,1.5716,1.5726,1.5665,1.5663,1.5792,1.5806,1.582,1.5935,1.5863,1.5871,1.5875,1.6142,1.6145,1.6148,0,0,0,0,0,0,1.5364,1.5387,1.5583,1.5496,1.5521,1.5577,1.5629,1.5637,1.5671,1.5731,1.574,1.5689,1.5791,1.5809,1.59,1.594,1.5874,1.5881,1.6139,1.6143,1.6147,1.6168,0,0,0,0,0,0,1.5357,1.5385,1.5424,1.5497,1.5526,1.5663,1.5632,1.5642,1.5685,1.5683,1.5756,1.5765,1.579,1.5888,1.5907,1.595,1.5887,1.6136,1.6141,1.6146,1.6164,1.6172,1.618,0,0,0,0,0,1.5347,1.5424,1.5426,1.5449,1.5575,1.5665,1.5681,1.571,1.5688,1.5726,1.5764,1.5763,1.5933,1.5897,1.5919,1.5964,1.6133,1.6139,1.6145,1.6161,1.6171,1.6179,0,0,0,0,0,0,1.5352,1.5434,1.5437,1.554,1.5596,1.5666,1.5715,1.572,1.5782,1.5778,1.5809,1.5826,1.5915,1.5949,1.5908,1.606,1.603,1.6041,1.6034,1.6045,1.6052,1.6042,1.5893,0,0,0,0,0,1.5365,1.5433,1.55,1.5584,1.5612,1.5659,1.5699,1.5716,1.5775,1.5798,1.5843,1.5898,1.5963,1.6006,1.607,1.6169,1.6183,1.621,1.6218,1.6224,1.6233,1.6285,1.6297,1.6168,1.6168,1.6168,0,0,1.5393,1.5446,1.5486,1.5586,1.5632,1.5699,1.5679,1.5752,1.5801,1.5809,1.5897,1.5932,1.5995,1.609,1.6134,1.6121,1.6272,1.6232,1.6236,1.6242,1.6293,1.6305,1.6316,1.6172,1.6171,1.6171,0,0,1.5477,1.5525,1.56,1.5646,1.5715,1.5745,1.5763,1.5833,1.5857,1.5946,1.5953,1.6011,1.6124,1.6169,1.6206,1.6306,1.6306,1.6325,1.6365,1.6416,1.6426,1.6436,1.6469,1.6481,1.6334,1.6334,1.6334,0,1.5502,1.5606,1.5637,1.571,1.5752,1.5763,1.5837,1.588,1.5966,1.5994,1.5978,1.6119,1.6163,1.6267,1.6291,1.6322,1.6341,1.6317,1.6423,1.6432,1.6441,1.6474,1.6486,1.6335,1.6335,1.6335,1.6335,0,1.5632,1.5704,1.5756,1.584,1.5888,1.5961,1.6001,1.6046,1.6058,1.6089,1.6179,1.6232,1.6305,1.6332,1.6344,1.6437,1.6427,1.6417,1.6387,1.6455,1.6486,1.6499,1.6338,1.6337,1.6337,1.6336,0,0,1.5724,1.5824,1.5842,1.5879,1.5956,1.6011,1.6083,1.6157,1.6194,1.6252,1.6312,1.6407,1.6398,1.644,1.6457,1.6502,1.6575,1.6486,1.6488,1.65,1.6678,1.6685,1.6699,1.6576,1.6579,1.6581,1.6672,0,1.5815,1.5947,1.5976,1.6088,1.6153,1.6164,1.6226,1.6279,1.631,1.6368,1.6401,1.6467,1.6451,1.6476,1.6521,1.6557,1.6611,1.6551,1.663,1.6632,1.6613,1.6715,1.6723,1.6806,1.6685,1.6687,1.6689,0,1.594,1.6003,1.6122,1.6188,1.6217,1.6273,1.6342,1.6398,1.6457,1.6476,1.6523,1.6535,1.6608,1.6576,1.6675,1.6633,1.6667,1.6689,1.6693,1.6701,1.6664,1.6724,1.6834,1.6846,1.6708,1.6707,1.6705,0,1.5993,1.6106,1.6192,1.6224,1.6305,1.6343,1.6378,1.6435,1.6477,1.6536,1.6563,1.6629,1.6665,1.6715,1.6744,1.6718,1.6841,1.6811,1.6856,1.6856,1.6881,1.6879,1.6997,1.6905,1.6905,1.6905,1.6904,0,1.6091,1.6163,1.6217,1.6269,1.6349,1.6381,1.6458,1.6493,1.6543,1.66,1.6613,1.6666,1.6702,1.6759,1.6782,1.686,1.6876,1.6891,1.6896,1.689,1.6888,1.6912,1.6906,1.6908,1.6907,1.6906,1.6906,0,1.6163,1.6202,1.6296,1.6365,1.6383,1.6439,1.6497,1.6547,1.6577,1.665,1.6668,1.6716,1.6784,1.6818,1.6902,1.6917,1.7005,1.7007,1.6985,1.6987,1.7029,1.7024,1.7166,1.7185,1.7082,1.7083,1.7084,0,1.6223,1.6278,1.6353,1.6394,1.643,1.6495,1.6537,1.657,1.6614,1.6684,1.6725,1.6794,1.6851,1.6959,1.6999,1.7063,1.7066,1.7111,1.7075,1.7066,1.7064,1.706,1.7065,1.7117,1.7118,1.7119,1.7119,0,1.6324,1.634,1.6403,1.6472,1.6523,1.6578,1.6633,1.6664,1.6705,1.6753,1.6824,1.6868,1.6955,1.7022,1.7089,1.7122,1.7127,1.713,1.7144,1.7137,1.7122,1.7129,1.7001,1.7127,1.7126,1.7125,1.7125,1.7125,1.639,1.644,1.65,1.6569,1.6613,1.6664,1.6714,1.6751,1.6811,1.6885,1.69,1.6974,1.7029,1.712,1.7155,1.7212,1.7202,1.7222,1.7227,1.7231,1.7232,1.7114,1.7224,1.7224,1.7224,1.7224,1.7224,0,1.649,1.653,1.6593,1.6669,1.6722,1.6725,1.6784,1.6828,1.6894,1.6946,1.7002,1.7082,1.7147,1.7193,1.7258,1.7295,1.7298,1.7311,1.7308,1.7315,1.7238,1.7219,1.7307,1.7307,1.7307,1.7307,1.7307,1.7307,1.6549,1.6632,1.6655,1.676,1.6798,1.6873,1.6906,1.6952,1.6994,1.7083,1.7138,1.7168,1.7217,1.7286,1.7345,1.7356,1.7379,1.7391,1.7402,1.7329,1.732,1.7312,1.7294,1.7396,1.7396,1.7474,1.7474,1.7475]},{"header":{"parameterUnit":"m.s-1","parameterCategory":1,"la1":30.2991,"la2":30.254,"lo1":-89.0895,"lo2":-89.0444,"dy":0.0017,"dx":0.0017,"nx":28,"ny":28,"refTime":"2024-06-01T03:00:00:Z","depth":0,"parameterNumber":3,"parameterNumberName":"V-component_of_WINDS"},"data":[0,0,0,0,0,0,0,0,0,0,0,0,0,0,0,0,0,0,0,0,0,0,0,0,0,0,0,0,0,0,0,0,0,0,0,0,0,0,0,0,0,0,0,0,0,0,0,0,0,0,0,0,0,0,0,0,0,0,5.8247,5.8248,0,5.8375,5.8377,5.8378,5.835,5.8348,5.8345,5.8343,5.8466,5.8471,5.8477,0,0,0,0,0,0,0,0,0,0,0,0,0,5.7967,5.7972,5.8247,5.8248,5.825,5.8375,5.8377,5.8379,5.8351,5.8348,5.8345,5.8342,5.8464,5.8471,5.8477,0,0,0,0,0,0,0,0,0,0,0,0,0,5.8091,5.7974,5.8246,5.8251,5.8253,5.8375,5.8377,5.8379,5.8351,5.8348,5.8344,5.8341,5.8462,5.847,5.8478,5.86,0,0,5.8503,5.8507,0,0,0,0,0,0,0,0,5.8084,5.8101,5.8249,5.8251,5.8253,5.8343,5.8323,5.8453,5.8352,5.8314,5.8343,5.8339,5.8427,5.8438,5.847,5.8606,5.8611,5.8504,5.8509,5.8513,5.8515,0,0,0,0,0,0,0,5.8075,5.8095,5.8297,5.8251,5.8254,5.8244,5.8257,5.8348,5.8389,5.8317,5.8315,5.8331,5.8428,5.8462,5.8473,5.8613,5.8504,5.8511,5.8516,5.8519,5.8853,5.8857,0,0,0,0,0,0,5.8066,5.8088,5.8293,5.8301,5.8158,5.8252,5.8267,5.8318,5.8388,5.8395,5.8334,5.8329,5.845,5.8463,5.8477,5.8623,5.8512,5.852,5.8525,5.8849,5.8854,5.8858,0,0,0,0,0,0,5.806,5.8085,5.8288,5.8195,5.822,5.826,5.8318,5.8322,5.8357,5.8401,5.8407,5.8362,5.8448,5.8465,5.857,5.8627,5.8524,5.8531,5.8844,5.885,5.8856,5.8917,0,0,0,0,0,0,5.8052,5.8083,5.8132,5.8196,5.8225,5.8382,5.8321,5.8327,5.8372,5.8367,5.8429,5.8436,5.8446,5.8558,5.8578,5.8636,5.8538,5.8839,5.8847,5.8854,5.891,5.8924,5.8936,0,0,0,0,0,5.8042,5.8143,5.8135,5.816,5.8288,5.8386,5.8402,5.8414,5.8377,5.8425,5.8453,5.8434,5.8618,5.8569,5.8591,5.8653,5.8836,5.8845,5.8853,5.8904,5.8921,5.8936,0,0,0,0,0,0,5.8082,5.8151,5.8143,5.8268,5.8322,5.8381,5.8442,5.8433,5.8495,5.8488,5.8498,5.8512,5.8618,5.8646,5.859,5.8773,5.8721,5.8735,5.8751,5.8768,5.8781,5.8771,5.8545,0,0,0,0,0,5.8106,5.8182,5.8238,5.8342,5.8369,5.8401,5.8444,5.845,5.8504,5.8525,5.8561,5.8612,5.8681,5.8726,5.8792,5.8914,5.8925,5.8967,5.898,5.8991,5.9002,5.9065,5.9083,5.8887,5.8887,5.8887,0,0,5.8154,5.8202,5.8249,5.8351,5.8393,5.8469,5.842,5.8503,5.8558,5.8537,5.8638,5.8666,5.8723,5.8837,5.8888,5.8863,5.9059,5.9002,5.901,5.9015,5.9076,5.9095,5.9111,5.8893,5.8892,5.8891,0,0,5.8281,5.8327,5.8418,5.8461,5.8526,5.8547,5.8568,5.8629,5.8648,5.875,5.8735,5.8799,5.8919,5.896,5.8996,5.9137,5.9121,5.9158,5.9226,5.9288,5.9303,5.9317,5.9365,5.9383,5.917,5.917,5.917,0,5.8333,5.845,5.8465,5.8549,5.8593,5.858,5.867,5.871,5.8792,5.8821,5.8793,5.8941,5.8979,5.91,5.9135,5.9165,5.9188,5.9151,5.9301,5.9315,5.9327,5.9373,5.9391,5.9174,5.9173,5.9173,5.9173,0,5.8508,5.859,5.8655,5.8737,5.8788,5.8875,5.8899,5.8949,5.8949,5.8971,5.9074,5.9119,5.9193,5.9222,5.9222,5.9343,5.9325,5.9299,5.9246,5.935,5.9393,5.9411,5.918,5.9178,5.9177,5.9176,0,0,5.8664,5.8754,5.8777,5.8813,5.8884,5.8945,5.9029,5.9104,5.9145,5.9202,5.927,5.9371,5.9347,5.9388,5.9393,5.9448,5.9553,5.9414,5.9415,5.9436,5.9685,5.9703,5.9724,5.9544,5.9547,5.955,5.968,0,5.8796,5.8949,5.8964,5.9099,5.9172,5.916,5.9233,5.9282,5.9304,5.9367,5.939,5.9461,5.9425,5.945,5.9503,5.9529,5.9603,5.952,5.9604,5.9607,5.9589,5.9747,5.9766,5.9887,5.9697,5.97,5.9702,0,5.8971,5.9035,5.9178,5.9237,5.9268,5.9334,5.9403,5.9464,5.9518,5.953,5.9576,5.9573,5.9656,5.9601,5.9714,5.9657,5.9692,5.971,5.9715,5.9721,5.9659,5.9755,5.9926,5.9943,5.9729,5.9727,5.9725,0,5.9067,5.9189,5.929,5.9322,5.9393,5.9439,5.947,5.9521,5.9565,5.9624,5.9651,5.9718,5.9754,5.9805,5.9818,5.9778,5.9929,5.9877,5.9939,5.9939,5.997,5.9968,6.0147,5.9996,5.9996,5.9995,5.9995,0,5.9212,5.9299,5.9334,5.9396,5.9492,5.9507,5.9601,5.9629,5.9674,5.9738,5.9731,5.9791,5.9806,5.9868,5.9879,5.9969,5.9985,5.9995,5.9996,5.9995,5.9993,6.0016,6.0008,6.0,5.9999,5.9998,5.9997,0,5.9335,5.9363,5.9472,5.9531,5.9548,5.9616,5.9664,5.9722,5.9743,5.9825,5.9844,5.9877,5.9949,5.9968,6.0054,6.0061,6.0166,6.0161,6.0149,6.0148,6.0208,6.0201,6.0407,6.0433,6.0267,6.0269,6.027,0,5.9425,5.9493,5.956,5.9604,5.9638,5.9709,5.9753,5.9769,5.9815,5.9881,5.993,6.0002,6.006,6.0175,6.0204,6.0268,6.0263,6.033,6.0272,6.0268,6.0261,6.0256,6.0261,6.0341,6.0342,6.0344,6.0345,0,5.9581,5.9591,5.9658,5.9729,5.9783,5.9839,5.9892,5.9928,5.9951,6.0002,6.0078,6.0123,6.0211,6.0281,6.0346,6.0374,6.0362,6.0363,6.0381,6.0379,6.0368,6.0372,6.0176,6.0358,6.0357,6.0356,6.0355,6.0355,5.9689,5.9748,5.9804,5.9877,5.992,5.9969,6.0026,6.0055,6.0119,6.0194,6.0199,6.0279,6.0328,6.0415,6.0447,6.0507,6.0487,6.0513,6.0519,6.0524,6.0529,6.0361,6.0519,6.0519,6.0519,6.0519,6.0518,0,5.9843,5.9878,5.9946,6.0022,6.0079,6.0067,6.0124,6.0172,6.0244,6.0292,6.035,6.0435,6.0502,6.0537,6.0603,6.0644,6.064,6.0661,6.0657,6.0663,6.0544,6.0522,6.0663,6.0663,6.0663,6.0663,6.0663,6.0663,5.9929,6.0027,6.0043,6.016,6.0194,6.0275,6.0309,6.0353,6.0392,6.0488,6.0545,6.0568,6.061,6.0679,6.0739,6.0747,6.077,6.0793,6.0798,6.0686,6.0671,6.0657,6.0636,6.0799,6.0799,6.0911,6.0912,6.0913]}]]